sat.trackr.live / text

‹ back to catalog

YAOGAN-25 01C

NORAD 40340 · 2014-080C

PAYLOAD ACTIVE UNKNOWN

§ Identity

Operator
Country
PRC
Launch date
2014-12-10
Launch site
JSC
Launch vehicle
Mass (kg)
RCS (m²)
2.63

External: N2YO · Heavens-Above · Gunter

§ Orbital elements

Epoch: 2026-05-25T04:02:58.735968Z

Period
107.04 min
Inclination
63.3889°
Eccentricity
0.0364849
Mean motion
13.45346504 rev/d
Perigee alt
817.0 km
Apogee alt
1,361.9 km
Semi-major
7,467.6 km
B*
-2.4501e-4
RAAN
10.5954°
Arg perigee
9.5303°
Mean anomaly
351.2404°
Rev number
56,265

§ Raw data

YAOGAN-25 01C1 40340U 14080C   26145.16873537 -.00000307  00000+0 -24501-3 0  99982 40340  63.3889  10.5954 0364849   9.5303 351.2404 13.45346504562656

JSON: /api/v1/satellites/40340 · /tle

For live sub-satellite position, see the globe view (requires WebGL).

§ Visibility from observer

Set your observer location to see the next 7 days of passes ≥ 10°. The values pass through the URL so the page stays shareable.

No JS? Fill the form by hand. The geolocation button needs JavaScript.